Find STARLINK-37514

NORAD ID: 68899 Constellation: starlink operational
LEOCIRCULARRETROGRADE

リアルタイム位置

3D地球を読み込み中...

STARLINK-37514について

説明を読み込み中...

次回通過

Passes for default location (London). Set your location on the main map for personalized predictions.

高度履歴

Loading altitude history...

軌道要素

1 68899U 26097E 26125.50001156 -.02273491 14290-2 -61348-2 0 9990
2 68899 97.2876 320.4876 0001564 85.4550 130.5616 15.94487694 2061
Epoch: May 5, 2026 • Age: 9 hours